Skip Page Navigation
NASA JPL Caltech
NASA Logo - Jet Propulsion Laboratory + View the NASA Portal
+ Center for Near-Earth Object Studies
JPL Home Earth Solar System Stars & Galaxies Technology
JPL Solar System Dynamics
BODIES ORBITS EPHEMERIDES TOOLS PHYSICAL DATA DISCOVERY FAQ SITE MAP
IMPORTANT: The SSD Announcement email list is now available. Major changes are coming in the near future, including possible hostname and/or URL changes. To be notified of such changes, subscribe to this email list.

Please visit this page for more details.


JPL Small-Body Database Browser
Search: [ help ]  
91571 (1999 RZ252)
Classification: Main-belt Asteroid          SPK-ID: 2091571
Ephemeris | Orbit Diagram | Orbital Elements | Mission Design | Physical Parameters | Discovery Circumstances | Close-Approach Data ]

[ show orbit diagram ]
Orbital Elements at Epoch 2459000.5 (2020-May-31.0) TDB
Reference: JPL 18 (heliocentric ecliptic J2000)
 Element Value Uncertainty (1-sigma)   Units 
e .01221346133781886 5.0812e-08  
a 3.065361560363555 2.5252e-08 au
q 3.027922885459619 1.5748e-07 au
i 10.19861729824094 5.4196e-06 deg
node 222.9102946191211 2.212e-05 deg
peri 203.4362420574626 0.00020565 deg
M 248.3142507964379 0.00020825 deg
tp 2459608.657754244155
(2022-Jan-29.15775424)
0.0011381 TDB
period 1960.292992518272
5.37
2.4223e-05
6.632e-08
d
yr
n .1836460168831851 2.2692e-09 deg/d
Q 3.102800235267492 2.556e-08 au
  Orbit Determination Parameters
   # obs. used (total)      819  
   data-arc span      7290 days (19.96 yr)  
   first obs. used      1999-09-08  
   last obs. used      2019-08-24  
   planetary ephem.      DE431  
   SB-pert. ephem.      SB431-N16  
   condition code      0  
   norm. resid. RMS      .54937  
   source      ORB  
   producer      Otto Matic  
   solution date      2019-Sep-24 02:58:09  

Additional Information
 Earth MOID = 2.03998 au 
 Jupiter MOID = 1.94442 au 
 T_jup = 3.208 
[ show covariance matrix ]

Ephemeris | Orbit Diagram | Orbital Elements | Mission Design | Physical Parameters | Discovery Circumstances | Close-Approach Data ]

Physical Parameter Table
Parameter Symbol Value Units Sigma Reference Notes
absolute magnitude H 14.2   n/a MPO264001  
diameter diameter 3.640 km 0.765 urn:nasa:pds:neowise_diameters_albedos::2.0[mainbelt] (http://adsabs.harvard.edu/abs/2011ApJ...741...68M)  
geometric albedo albedo 0.367   0.215 urn:nasa:pds:neowise_diameters_albedos::2.0[mainbelt] (http://adsabs.harvard.edu/abs/2011ApJ...741...68M)  

91571 (1999 RZ252)          Discovered 1999-Sep-08 by LINEAR at Socorro
Reference: 20041028/Numbers.arcLast Updated: 2004-10-29

[ hide close-approach data ]
Close-Approach Data   ...sorted by Date/Time (TDB)
Date/Time (TDB) Time Uncertainty
(days_HH:MM)
Body Nominal Distance (au) Minimum Distance (au) Maximum Distance (au) V-relative (km/s) V-infinity (km/s) JD (TDB) Time Uncertainty (minutes) Semi-major axis (km) Semi-minor axis (km) range-LOV angle (deg) N-sigma BP Orbit Ref. Reference Modified
2000-Apr-28 19:30 < 00:01 Jupiter 1.98546631970723 1.98546578766922 1.98546685174512 4.7766236256489 4.68646033931484 2451663.312293704 0.459657586558677 47.5816102146366 24.0791173093526 82.5962860130188 3224430.90371209 T 18 CATAB v2.0f-lin.ifort 2019-Sep-24 02:58:12 2019-Sep-24 02:58
2059-Jan-28 16:37 00:02 Jupiter 1.96154496170683 1.96154443726843 1.96154548614578 4.58284581217575 4.48763276122769 2473122.192078582 1.59726017389499 127.088811358991 21.5124016483376 -84.6021918244567 3217158.65726683 T 18 CATAB v2.0f-lin.ifort 2019-Sep-24 02:58:12 2019-Sep-24 02:58
2117-Oct-25 18:06 00:04 Jupiter 1.98112952363391 1.98112864500297 1.98113040227443 4.27757002188537 4.17642368466174 2494576.253978915 3.71206186304799 257.944197659628 19.6967241753087 -80.6930924708663 3249771.97717575 T 18 CATAB v2.0f-lin.ifort 2019-Sep-24 02:58:12 2019-Sep-24 02:58
Ephemeris | Orbit Diagram | Orbital Elements | Mission Design | Physical Parameters | Discovery Circumstances | Close-Approach Data ]
ABOUT SSD CREDITS/AWARDS PRIVACY/COPYRIGHT GLOSSARY LINKS
FirstGov 2020-Mar-29 18:45 UT
(server date/time)  
NASA Home Page
Site Manager:   Ryan S. Park
Webmaster  Alan B. Chamberlin